Wind_Speed
54 50 50 51 51 51 50 48 47 50 52 53 52 48 43 42 42 40 37 36 37 37 38 37 34 33 32 32 32 31 31 33 32 32 36 34 31 32 29 27 31 29 28 28 24 23 26 28 29 31 33 34 35 36 36 36 36 36 35 32 29 26 25 25 25 25 25 25 25 24 25 26 26 25 24 23 23 23 24 24 23 22 22 22 22
55 52 50 49 50 49 47 45 46 50 52 51 50 46 42 41 40 38 35 35 38 39 38 35 33 32 30 31 31 31 31 32 32 33 36 36 34 34 30 26 28 29 30 30 25 25 28 31 33 33 34 36 39 40 39 38 38 37 36 36 34 29 25 25 27 28 29 29 28 27 26 26 26 25 24 23 24 24 24 24 23 22 22 23 23
58 56 54 51 49 49 49 50 51 53 51 47 45 43 40 38 37 36 35 35 37 37 34 32 32 30 28 29 30 30 32 32 32 33 36 37 35 36 33 27 26 28 31 31 28 29 31 34 38 39 38 37 40 42 42 41 41 38 37 39 39 36 31 28 29 29 30 31 30 28 27 26 25 24 23 23 23 23 23 23 23 23 22 23 23
61 60 58 55 53 51 50 51 52 52 52 48 44 42 40 38 37 36 34 34 34 31 30 30 29 28 27 28 30 30 31 32 32 33 36 37 36 38 36 30 29 31 31 30 30 30 29 32 37 40 40 40 40 41 42 43 44 42 40 40 41 41 39 34 32 30 30 31 30 28 27 26 25 24 24 23 23 23 23 24 24 24 23 23 23
62 61 59 56 53 52 50 49 48 48 51 52 49 45 41 39 38 38 36 34 33 30 28 27 26 26 26 28 30 30 30 30 31 33 36 38 37 38 38 35 33 35 34 33 33 31 29 32 34 36 37 39 40 39 38 40 43 43 42 42 42 43 43 41 37 34 32 32 31 28 27 27 26 25 25 25 24 23 24 25 26 25 24 24 24
58 56 54 53 51 50 50 49 45 43 46 48 50 51 49 46 44 41 38 36 33 29 26 24 23 23 24 26 28 29 29 29 30 32 36 39 39 39 40 37 31 31 33 35 36 32 30 33 34 34 34 36 38 36 35 37 40 40 40 41 42 42 43 43 41 39 37 36 34 31 29 29 28 27 27 26 26 25 25 25 27 27 26 25 24
51 41 40 46 51 52 50 48 45 42 43 44 46 51 51 48 45 41 38 35 31 28 26 23 21 20 21 23 25 26 27 28 29 31 35 39 42 41 41 38 30 28 32 35 33 28 28 32 34 35 34 35 35 32 33 34 35 36 38 39 40 40 41 41 41 40 40 39 38 36 33 32 31 30 29 28 27 26 26 26 26 27 26 25 25
50 40 40 44 48 51 46 39 39 41 44 48 49 47 45 42 41 41 38 34 29 26 26 23 21 20 20 22 25 27 27 27 27 30 34 39 43 44 42 39 32 29 32 33 28 25 27 32 34 35 34 34 33 30 30 30 30 31 34 37 38 40 40 40 40 38 38 38 39 40 39 36 35 33 32 31 30 28 27 26 26 25 24 24 24
55 51 51 49 47 47 40 30 35 44 47 51 51 48 46 46 45 43 37 33 27 23 24 25 22 21 22 23 26 29 29 27 27 29 32 37 42 45 44 40 34 32 32 29 25 24 29 33 35 36 34 33 32 30 28 27 27 28 30 33 36 39 40 40 39 38 37 36 36 37 39 39 39 38 37 36 35 33 30 28 26 25 24 24 23
55 54 52 50 47 43 36 32 39 50 53 54 53 50 49 49 49 43 35 31 27 23 23 25 23 23 23 24 28 32 32 30 28 28 30 34 39 43 44 42 39 37 32 27 26 27 32 37 37 36 34 31 29 28 27 25 25 26 28 30 33 36 38 40 39 38 37 37 36 35 35 36 38 39 39 38 38 36 32 29 28 27 25 26 25
51 51 50 50 49 44 40 41 46 52 56 57 54 51 48 48 47 42 35 30 27 25 24 24 25 25 24 26 31 34 35 32 28 28 29 33 36 39 42 43 41 38 33 30 32 34 37 40 39 34 31 28 27 26 24 22 20 21 25 28 31 32 34 37 38 37 36 37 38 38 37 36 37 37 37 36 35 34 33 31 30 29 28 28 27
46 47 47 47 48 46 46 48 50 52 55 57 57 55 50 47 44 38 34 30 27 27 25 24 27 26 25 27 32 36 36 33 29 29 30 32 34 36 39 42 40 38 35 33 35 37 39 42 37 31 29 26 25 23 20 18 17 18 20 23 26 28 29 31 33 34 34 35 37 39 40 40 39 39 37 33 30 30 31 32 32 30 29 29 28
43 44 44 44 44 45 46 49 49 50 54 56 57 57 53 47 42 36 33 32 29 29 28 28 29 28 27 28 31 35 37 34 30 31 33 33 34 36 38 40 40 39 36 33 34 36 39 40 34 29 29 26 24 24 22 20 19 19 20 21 22 23 24 25 27 29 30 32 33 35 37 39 39 39 37 33 30 30 30 31 32 31 30 29 29
40 40 40 41 41 42 45 49 50 49 52 54 54 54 51 46 41 35 33 34 33 32 32 32 32 31 30 30 31 34 36 35 32 32 34 35 35 36 38 40 42 42 38 35 35 36 38 39 34 29 29 27 26 25 25 24 23 23 24 23 23 22 21 21 21 23 26 28 30 31 33 35 36 37 36 35 33 33 32 30 30 31 31 31 30
37 37 38 38 39 40 42 46 49 50 51 52 52 51 48 45 41 36 34 36 36 35 34 33 33 32 32 31 31 32 34 34 33 33 35 36 37 37 38 40 43 43 41 39 38 38 39 41 37 31 28 28 27 27 27 27 26 25 25 25 25 23 22 21 21 22 23 25 26 28 30 32 33 34 36 37 35 35 35 33 30 30 31 31 31
35 35 35 36 37 38 40 42 45 48 50 51 52 50 47 45 43 40 38 38 38 37 35 34 34 32 31 31 32 32 33 35 36 36 36 36 37 37 37 39 42 44 43 40 38 38 38 39 38 35 31 30 29 29 29 28 27 27 28 29 29 28 26 25 24 23 23 24 24 25 27 29 31 32 34 36 38 38 38 37 35 33 32 32 31
33 33 34 35 35 36 38 40 43 46 48 50 52 51 48 46 45 44 43 43 42 41 38 37 37 34 32 33 34 34 34 36 39 40 39 37 36 37 38 39 41 44 45 43 38 36 36 36 35 35 34 33 33 32 32 30 30 31 31 31 31 31 30 28 27 26 25 24 24 24 25 28 31 31 31 32 35 38 40 41 40 39 37 35 34
32 32 33 33 34 35 36 39 41 44 46 48 51 52 50 48 47 46 46 46 46 45 41 39 40 38 35 34 35 36 35 35 37 41 42 40 38 37 38 40 42 45 47 46 42 38 36 35 34 34 34 36 37 37 36 35 34 34 33 33 34 33 32 31 30 30 29 27 25 25 25 27 31 33 32 31 32 34 38 41 43 43 42 40 38
31 31 32 32 33 34 35 37 39 42 44 47 50 53 53 51 48 47 47 47 48 47 44 41 42 42 39 36 36 36 36 34 35 39 41 41 41 40 39 40 42 46 48 49 47 45 42 40 38 38 37 39 40 40 39 37 35 35 34 34 35 36 36 35 35 35 34 31 28 28 27 26 28 32 34 34 34 34 35 38 41 43 43 43 41
30 30 31 31 32 32 33 35 37 39 42 45 47 50 53 53 52 49 47 47 47 48 46 43 44 45 43 39 37 36 37 37 36 38 40 41 43 43 43 43 42 44 47 50 50 50 49 47 45 44 43 42 41 41 40 37 36 37 36 35 35 37 38 39 39 39 38 35 32 30 29 27 27 29 33 37 38 38 37 36 37 39 41 42 42
30 31 31 31 32 32 32 33 35 36 38 41 44 47 51 53 55 53 50 47 47 48 48 46 45 46 46 42 38 38 39 40 39 40 40 41 42 45 47 47 46 45 46 48 50 51 51 51 50 49 47 45 44 43 42 39 37 37 37 36 37 38 40 41 41 42 41 39 37 34 32 30 29 29 32 36 40 42 42 41 39 39 39 40 41
30 31 31 32 32 32 32 33 34 36 37 38 41 44 48 51 54 55 54 51 48 48 50 48 45 46 46 43 40 41 41 41 41 42 42 42 43 45 47 48 49 48 47 47 49 50 51 51 52 51 49 47 46 45 44 40 37 36 37 38 39 41 42 42 43 43 43 42 40 38 36 35 34 33 34 35 37 39 41 43 43 44 43 43 44
30 30 31 31 32 33 33 34 34 36 38 39 40 42 45 48 52 55 56 56 53 51 52 51 47 45 46 45 43 42 42 41 42 43 43 43 44 45 46 46 47 48 49 49 49 49 49 50 51 51 50 49 48 48 47 44 41 40 40 39 41 45 45 43 43 44 43 43 41 40 39 38 38 37 36 36 36 36 36 37 39 41 42 44 45
32 31 31 31 32 33 34 35 36 37 39 40 41 42 43 45 48 52 55 57 57 55 55 54 52 48 48 48 45 44 43 42 42 44 45 44 44 45 46 46 46 46 48 48 48 48 47 48 48 49 50 50 49 49 49 49 49 48 46 43 43 47 47 45 45 44 42 41 40 40 39 39 39 38 37 38 37 36 35 35 35 35 36 36 37
34 33 33 32 32 33 34 35 36 37 38 40 41 41 41 42 45 48 52 55 57 57 57 57 57 54 52 51 50 47 46 44 43 44 46 47 47 47 47 47 47 47 48 48 49 49 48 48 48 48 49 49 49 49 49 52 54 54 53 50 48 48 48 47 47 45 43 41 42 42 40 39 39 39 39 39 39 38 37 36 35 34 33 32 32
35 35 35 34 34 34 34 35 36 37 38 39 40 41 41 41 42 45 48 51 55 58 59 58 59 59 57 56 54 51 50 49 47 45 47 49 50 50 50 50 49 49 49 49 50 50 50 51 50 49 48 47 47 48 49 50 52 54 56 56 54 53 52 51 50 49 47 46 46 45 44 42 42 41 41 41 40 40 39 39 38 36 35 33 32
37 37 37 37 37 37 36 36 37 37 38 39 40 41 41 41 42 43 45 48 51 55 58 60 61 62 61 60 59 57 55 55 53 49 48 49 50 51 52 52 51 52 52 52 52 52 52 53 53 51 50 50 49 50 50 49 50 52 55 57 57 56 54 53 53 52 51 50 49 48 47 46 45 44 43 43 42 41 42 41 40 39 38 36 35
40 40 40 39 39 39 39 39 39 39 39 40 41 42 42 43 43 43 44 46 48 50 54 57 60 62 63 63 63 62 59 59 58 55 52 51 51 52 53 53 52 52 53 55 55 54 54 55 55 54 54 54 54 54 52 51 51 53 54 56 57 56 54 53 53 53 53 52 51 50 50 49 48 46 45 44 44 44 45 45 44 42 41 40 39
44 43 42 42 42 42 42 42 42 41 41 41 41 42 43 44 44 45 45 46 47 49 50 53 55 58 61 63 64 64 63 62 62 61 59 57 55 54 54 54 54 54 53 55 56 56 56 57 56 56 56 57 57 57 55 54 55 55 55 56 57 57 57 55 55 54 54 53 52 52 52 51 50 48 47 46 45 46 47 48 48 47 46 45 44
47 47 47 46 45 45 44 44 44 44 44 43 43 43 43 44 45 46 47 47 48 49 50 51 52 54 56 59 61 63 64 64 64 64 63 62 61 59 57 57 57 57 56 55 56 57 58 58 57 58 58 59 59 59 59 59 60 59 58 58 59 59 59 58 56 55 55 55 54 54 53 53 51 50 49 49 48 48 49 50 51 51 50 50 49
49 50 50 50 49 49 48 47 47 47 46 46 46 45 45 45 45 46 47 48 49 50 52 53 53 54 54 56 58 59 61 63 64 65 66 66 65 64 62 61 60 60 59 57 56 57 59 60 60 59 60 61 61 61 61 62 63 63 61 61 61 61 61 60 59 57 57 57 56 56 55 55 54 53 52 52 52 52 52 52 53 53 52 53 52
51 51 51 52 52 52 52 51 50 49 49 48 48 48 48 47 47 47 47 48 49 51 52 53 54 55 55 56 57 58 59 60 62 64 66 67 67 67 66 66 65 64 63 61 59 58 58 60 61 61 62 62 63 64 64 64 65 65 65 64 64 64 64 63 62 61 60 59 59 58 58 57 57 56 55 55 55 56 56 56 56 56 55 55 55
52 52 53 53 53 53 53 54 53 52 52 51 50 50 50 50 50 50 50 50 50 51 52 53 55 56 56 57 57 58 59 59 60 62 63 65 67 68 69 69 69 69 67 66 65 62 60 60 61 62 63 63 64 65 66 66 66 66 66 66 66 66 67 66 66 65 64 62 62 62 61 60 59 59 58 58 59 59 60 59 59 59 59 58 58
53 54 55 55 55 54 54 54 54 54 54 54 54 53 53 53 53 53 53 53 52 52 52 53 54 56 57 58 58 59 59 60 61 61 62 64 65 67 68 69 70 71 71 70 69 67 66 64 63 62 62 63 64 65 66 67 67 67 67 66 67 67 68 68 68 68 66 66 65 64 64 63 62 62 61 62 62 62 62 62 61 61 61 61 61
54 55 55 56 56 56 56 55 54 54 55 56 56 56 56 56 55 55 55 55 56 55 55 55 55 56 57 59 59 60 61 61 61 62 63 63 64 65 67 68 70 71 73 73 72 70 69 69 68 67 66 65 64 64 65 66 67 68 68 68 68 68 68 69 69 69 69 68 68 67 67 66 65 65 64 64 64 64 64 63 62 62 62 62 62
56 56 57 58 57 57 57 56 55 55 55 56 57 58 59 59 59 58 58 58 58 58 58 58 58 58 58 59 60 61 62 62 62 62 63 63 64 65 66 67 68 70 72 74 75 74 72 71 71 70 70 70 69 68 67 66 65 66 68 69 70 70 70 70 70 70 70 70 70 70 69 68 67 66 65 65 64 63 63 62 61 61 62 62 62
58 57 58 59 58 58 58 57 57 57 56 56 57 58 59 60 61 61 61 61 61 60 61 61 61 61 61 60 61 62 62 63 63 64 64 64 64 65 67 67 68 69 70 72 73 75 76 76 75 74 74 73 73 73 72 71 69 67 66 67 69 71 71 71 71 71 71 71 71 70 70 69 68 68 66 65 64 63 62 61 61 61 61 62 62
60 61 62 62 62 62 61 59 59 59 58 58 58 58 58 59 61 63 63 63 63 63 64 64 64 64 64 64 64 64 64 64 64 65 65 65 65 66 67 68 69 70 70 71 71 73 74 76 77 77 77 77 76 75 76 75 74 73 70 68 69 70 72 72 71 71 71 71 71 71 71 71 71 70 69 68 67 66 65 65 64 64 64 64 64
61 64 65 63 63 63 63 62 60 58 58 59 59 61 62 61 62 64 65 65 65 66 66 66 66 67 67 67 67 67 67 66 66 66 66 67 67 67 67 68 68 70 71 72 72 73 73 74 75 76 77 77 77 77 77 77 77 77 76 74 72 72 73 74 74 74 73 73 72 71 71 71 71 72 72 71 70 70 69 69 69 69 69 68 68
60 62 63 62 61 61 61 61 62 61 60 60 61 63 66 67 67 67 67 66 66 67 68 68 68 69 69 70 70 70 71 70 70 69 69 69 69 69 69 69 69 70 71 72 73 74 74 75 75 76 76 76 77 77 77 77 77 79 79 79 77 76 75 75 76 77 78 78 77 77 75 74 73 73 73 73 73 73 72 72 73 73 73 73 72
59 60 60 60 59 58 57 57 60 62 63 63 62 62 66 70 72 71 69 67 67 68 69 69 70 71 71 72 72 73 73 73 73 73 73 72 72 72 72 71 71 71 71 72 73 73 74 75 76 77 77 78 78 78 78 78 78 78 80 80 81 81 80 78 78 79 80 80 81 81 81 81 81 80 79 78 78 77 76 76 77 77 77 77 77
59 60 59 59 58 57 55 54 57 60 60 59 59 61 64 70 74 74 72 70 69 69 70 70 71 72 73 74 75 75 76 76 76 76 76 75 75 75 75 74 74 74 74 74 74 74 74 75 76 77 78 79 80 80 79 79 79 79 79 80 81 82 82 81 81 81 81 81 80 80 82 83 83 84 84 84 83 83 82 82 82 83 83 83 82
61 61 61 60 59 57 56 57 60 62 60 57 57 59 62 67 72 73 73 72 71 70 70 71 72 74 75 76 77 77 78 78 78 78 78 78 78 78 78 77 77 77 77 77 77 77 76 76 76 77 77 78 80 80 80 81 81 81 81 82 82 82 83 83 83 83 84 84 82 81 82 83 83 83 84 84 84 84 84 85 85 86 86 85 85
63 63 63 62 61 60 59 60 63 64 61 60 60 60 61 65 69 71 71 70 70 70 69 70 72 74 76 77 78 79 80 81 80 80 80 80 81 80 80 80 80 80 80 80 80 80 79 79 79 79 79 79 79 80 81 81 81 81 82 84 84 84 84 84 84 85 87 87 85 83 83 84 85 84 84 84 85 84 84 84 84 84 85 85 84
66 66 66 65 64 64 63 63 64 65 64 65 66 66 66 68 70 72 72 70 68 67 67 69 71 73 74 76 78 80 81 82 83 82 82 82 82 82 82 83 83 83 83 83 83 83 82 82 81 82 82 82 82 82 83 82 82 82 82 83 84 84 85 85 86 87 89 89 88 86 85 86 87 87 85 86 87 86 86 85 85 84 84 85 85
69 69 69 68 68 67 67 66 67 66 66 69 71 72 73 74 73 73 73 71 69 69 70 72 73 74 75 76 78 79 81 82 83 84 84 84 85 85 85 85 85 85 86 86 86 86 86 85 85 85 86 86 85 86 86 86 85 84 84 84 84 84 85 85 87 88 89 90 90 88 87 88 90 90 88 89 89 89 88 87 87 86 85 85 86
72 72 71 72 71 71 70 70 69 68 68 71 74 75 76 77 77 76 75 74 73 74 76 77 78 78 78 78 79 80 81 81 82 83 84 86 87 88 88 88 87 87 87 88 89 89 89 89 88 88 89 89 90 90 90 91 90 89 88 87 86 86 86 86 86 87 89 90 91 89 87 89 92 91 90 91 92 91 90 90 89 89 88 87 87
74 74 73 73 74 73 73 73 71 69 69 72 75 77 78 78 78 77 76 76 76 77 78 79 80 81 81 81 81 81 82 82 82 82 83 85 87 89 90 90 90 90 90 91 91 91 91 91 91 92 92 92 93 93 93 94 94 94 93 92 91 91 90 89 89 89 89 90 91 90 88 88 91 92 92 92 93 92 91 91 91 91 90 90 89
74 74 74 74 74 74 74 74 72 71 72 75 76 77 78 78 78 78 77 77 78 78 79 80 80 81 82 82 83 83 83 83 82 82 83 85 86 88 89 89 90 91 93 93 93 93 93 93 94 94 95 95 96 96 96 97 97 97 97 96 95 95 94 93 93 92 93 93 94 93 91 90 92 92 92 93 93 93 92 92 92 91 91 90 89
73 74 74 74 74 74 73 74 73 73 75 77 77 76 77 77 78 78 78 79 79 79 79 80 80 81 82 82 83 83 83 83 83 84 84 85 86 87 87 87 88 90 91 92 93 94 95 96 96 97 97 98 98 98 99 99 100 100 99 99 99 99 98 97 96 96 96 97 98 98 96 94 95 95 95 95 95 95 94 94 94 94 92 91 90
74 74 74 74 74 73 73 74 75 75 76 77 76 76 77 78 79 79 79 79 79 79 80 80 80 81 82 82 83 82 83 83 84 85 85 86 87 87 87 87 87 87 88 89 90 92 94 96 97 98 99 100 100 100 101 102 102 102 102 102 102 102 101 101 100 99 99 100 101 102 101 99 99 99 99 99 99 98 98 98 98 98 96 95 94
Wind_Direction
272 269 268 269 270 270 269 267 266 266 272 277 275 274 278 280 280 280 281 277 274 276 282 283 279 275 270 264 256 249 245 244 241 239 236 228 219 225 240 245 243 248 247 241 240 248 254 255 253 252 252 255 257 258 257 253 251 249 247 246 247 248 247 247 250 257 260 260 264 269 272 266 260 262 268 274 278 280 282 282 281 277 273 273 274
270 269 270 270 268 266 265 262 261 266 272 274 271 272 278 279 276 276 276 273 272 278 282 280 274 271 266 261 255 248 243 242 238 235 236 233 221 222 234 236 237 245 245 239 240 252 259 258 256 255 253 253 254 256 257 257 255 252 250 247 246 246 244 247 249 253 257 258 262 267 271 267 259 259 265 270 274 277 279 279 280 279 274 271 271
268 268 269 269 266 264 264 263 262 264 266 268 269 271 275 274 268 267 270 270 274 279 279 274 270 267 262 258 253 246 243 240 237 233 233 234 225 221 227 230 236 246 243 238 244 256 260 257 256 256 256 255 254 253 253 255 256 255 253 250 248 247 245 248 249 251 254 255 259 264 267 265 259 257 263 267 270 274 276 276 277 279 275 270 268
267 267 268 268 264 263 265 264 263 261 260 261 266 269 270 268 263 263 266 268 276 281 275 269 265 261 258 255 251 246 242 240 236 232 229 230 224 219 221 227 235 242 242 244 249 254 259 260 255 252 254 256 255 254 251 251 254 254 252 251 250 249 249 251 250 250 252 251 253 258 259 259 257 257 261 265 268 272 274 274 275 276 273 268 263
265 267 267 266 263 263 264 263 261 260 258 258 262 263 263 265 263 263 263 267 279 280 270 265 262 257 253 253 251 246 243 241 236 230 227 225 220 216 217 223 234 240 243 248 249 249 259 265 259 253 254 256 254 253 251 249 250 251 250 250 250 250 251 253 252 250 250 248 249 253 254 255 255 255 259 263 268 273 274 274 274 273 270 264 259
266 267 267 265 262 263 263 261 260 261 259 259 261 259 258 261 262 262 263 268 276 272 261 260 259 255 251 250 251 248 244 241 237 231 226 221 218 216 217 222 231 238 240 242 245 250 262 266 262 260 259 255 251 250 248 246 247 246 246 247 250 250 251 253 253 251 250 249 248 249 252 253 253 255 257 261 267 273 275 275 273 272 268 261 256
265 264 265 264 262 262 263 264 263 262 257 254 256 256 255 257 257 259 264 269 270 261 255 257 256 253 250 249 250 250 247 242 237 234 227 221 219 220 221 223 226 229 233 236 241 252 263 264 262 263 261 254 250 247 245 246 246 245 243 244 247 249 251 253 254 253 252 251 249 249 250 252 253 255 256 260 267 272 273 272 271 272 268 260 255
260 256 255 258 261 261 262 265 264 259 254 248 249 253 252 251 252 257 264 266 261 252 252 255 255 255 251 248 247 247 248 245 240 236 229 221 221 223 225 226 226 228 233 234 239 252 263 265 265 265 259 249 246 246 245 246 246 246 246 245 246 248 249 251 253 255 256 255 253 251 252 253 255 257 258 261 266 270 272 269 267 270 266 259 255
258 254 252 253 258 258 255 252 250 248 246 244 246 250 249 248 252 256 262 261 250 244 248 251 253 256 252 246 241 242 245 247 244 239 230 223 221 223 224 226 227 229 231 232 239 257 267 268 269 267 256 243 241 243 244 247 247 247 248 249 249 249 249 251 252 253 255 257 257 256 256 256 257 259 260 262 265 268 271 267 264 266 264 260 259
256 254 252 251 250 253 248 239 240 241 240 240 244 249 248 248 251 254 258 253 239 235 243 248 249 251 251 244 237 237 242 246 245 239 231 225 222 222 223 224 227 227 227 234 248 264 269 269 271 266 250 239 238 238 240 244 247 249 250 251 251 250 250 251 253 253 254 254 255 256 258 259 260 261 261 263 266 267 268 266 262 261 261 261 262
254 253 251 247 244 243 237 232 236 239 240 238 238 245 248 248 249 251 251 244 233 232 240 247 249 249 250 243 233 232 237 243 244 238 232 227 224 223 221 222 225 224 225 237 253 263 265 267 270 261 243 236 235 235 237 241 246 252 253 253 252 252 252 253 255 257 258 256 255 254 255 257 260 262 262 263 264 264 264 264 261 258 259 260 263
251 250 249 246 243 240 233 230 235 236 237 236 236 241 247 246 245 245 242 235 230 231 232 239 247 248 247 241 233 229 233 240 241 236 232 230 226 224 222 221 219 218 224 237 248 254 257 263 266 253 238 238 238 238 240 242 247 254 257 256 254 254 254 254 256 258 260 259 257 256 256 256 258 261 262 261 260 263 265 265 263 260 260 261 262
249 248 247 245 242 239 233 231 235 234 233 235 236 239 243 243 239 237 235 229 225 226 226 232 240 244 243 240 236 230 232 238 238 233 232 231 228 224 224 223 218 215 223 234 240 244 250 257 259 244 235 236 236 239 239 237 242 253 259 258 255 253 250 250 252 255 257 258 258 259 259 259 258 259 259 257 256 262 268 268 264 262 261 260 261
248 246 245 243 240 238 235 233 235 236 233 233 234 236 239 238 233 231 230 225 223 224 226 231 238 242 241 239 238 232 231 236 236 232 231 231 230 227 225 224 219 216 221 228 233 237 243 251 249 237 234 233 233 236 234 231 234 245 253 252 251 249 247 249 254 258 259 260 260 260 261 261 260 258 256 254 254 258 263 265 262 260 259 259 259
247 245 243 242 239 236 235 234 235 236 234 232 232 233 234 232 228 227 226 224 224 224 226 228 233 239 238 236 235 232 231 232 231 231 231 230 232 230 228 226 222 220 223 226 230 234 238 245 243 234 235 237 237 237 235 232 230 234 241 242 241 241 243 251 257 262 264 264 264 263 262 262 262 260 256 255 254 256 259 260 259 257 257 258 259
246 245 243 241 239 236 235 235 235 235 233 231 231 230 230 228 224 222 221 221 223 225 226 223 224 230 233 233 233 234 235 233 230 230 231 231 233 234 232 229 225 224 227 231 234 237 238 240 240 236 237 240 243 243 242 241 238 236 238 238 237 236 240 245 248 252 257 262 267 268 266 264 263 263 260 257 255 255 257 259 260 258 257 259 261
246 244 243 241 239 236 235 234 234 234 232 230 230 229 228 224 221 220 219 219 222 226 226 223 222 226 230 231 232 236 239 237 232 229 231 232 234 235 235 233 230 227 229 234 237 239 237 235 234 234 236 239 241 243 243 243 243 241 240 242 243 243 246 248 248 249 250 255 262 267 268 264 262 264 266 264 260 257 257 258 260 260 260 261 262
246 244 243 241 239 237 235 233 233 234 233 231 230 229 228 224 222 221 220 221 225 228 228 226 224 226 229 229 229 233 238 240 235 229 230 233 234 235 235 234 232 230 231 234 236 234 232 229 228 230 233 234 234 235 237 239 241 243 243 245 247 248 251 253 254 253 253 254 257 262 266 264 260 260 264 267 265 262 259 257 258 259 261 262 262
248 246 244 243 242 239 237 234 233 233 233 232 230 230 229 225 222 221 221 223 226 228 227 225 224 225 228 229 228 230 235 239 236 231 231 234 235 235 235 234 233 232 232 234 236 235 232 229 229 232 235 236 235 234 236 239 243 247 249 250 251 252 253 255 257 257 256 256 256 258 263 266 262 258 260 263 264 263 260 259 258 258 259 261 261
249 248 247 246 245 244 242 238 236 234 234 233 232 231 230 228 224 221 221 223 225 226 225 223 223 224 227 229 229 230 233 235 235 233 232 233 235 235 235 234 233 233 233 234 236 237 236 235 235 236 237 238 238 238 237 240 244 248 251 255 257 257 257 258 260 260 260 259 259 259 260 263 263 259 258 260 261 261 261 261 261 260 260 261 261
247 247 248 248 248 247 245 243 240 237 236 235 234 234 233 230 227 224 223 224 224 223 223 223 223 223 225 226 228 230 232 233 234 233 233 232 233 234 235 235 235 234 234 234 235 237 239 239 239 239 238 238 239 240 239 241 248 250 250 253 256 257 257 258 260 261 262 262 262 262 262 262 264 262 261 262 263 263 262 262 262 262 262 262 262
246 246 246 246 247 247 247 245 241 238 237 237 237 236 235 233 231 228 226 227 226 224 223 224 223 222 223 223 226 229 230 232 233 234 234 233 232 233 233 234 236 237 238 238 237 237 238 240 241 241 241 240 240 241 240 241 248 253 251 251 253 253 253 254 257 260 261 262 263 264 265 266 267 268 270 271 272 269 266 265 265 264 264 263 262
244 244 244 244 243 244 245 245 243 239 236 237 239 239 238 237 235 232 230 230 230 228 226 226 224 222 221 221 224 228 230 231 232 234 234 233 233 233 233 233 234 237 239 241 240 239 239 241 242 243 243 242 241 242 241 240 243 249 251 251 252 252 251 252 255 257 258 261 263 265 266 266 266 269 273 275 275 273 270 268 267 267 266 266 265
242 242 243 243 243 242 242 243 243 241 238 237 239 240 240 239 239 238 235 233 233 232 232 232 230 227 224 223 225 225 227 229 231 233 234 234 234 235 236 236 235 236 238 240 240 240 241 243 244 245 245 244 243 243 244 243 242 245 248 248 250 253 252 252 255 258 260 262 263 265 266 265 264 266 270 273 273 271 270 270 269 268 268 267 268
243 242 242 243 244 243 242 241 241 242 241 241 241 242 242 241 240 240 239 238 237 236 236 236 236 235 230 228 229 227 225 225 228 232 234 235 235 237 238 239 239 239 239 239 240 242 243 246 247 248 249 249 248 247 247 247 246 246 248 248 249 252 255 256 257 259 262 265 266 266 267 267 265 263 264 268 270 268 267 268 268 268 267 267 267
244 244 244 244 244 245 244 243 242 241 241 242 243 243 243 242 241 241 241 240 240 239 239 238 239 240 238 234 234 234 230 228 229 231 232 234 236 237 239 241 241 241 241 241 242 243 245 247 248 248 250 251 251 251 250 250 250 250 251 252 251 253 256 259 259 261 264 267 267 267 268 269 267 264 261 262 266 266 265 266 266 266 266 265 265
246 245 245 245 245 245 245 245 244 242 241 240 241 243 244 244 243 242 242 241 241 241 241 240 240 242 242 240 239 239 237 235 235 233 230 231 234 236 238 240 241 241 242 242 242 244 245 247 248 249 250 250 250 251 251 252 253 253 253 255 256 257 257 258 260 262 265 267 266 265 266 267 267 265 262 260 261 262 262 263 264 264 264 263 263
249 248 247 247 247 247 246 246 246 244 243 242 241 241 242 244 244 244 243 243 242 242 242 242 241 241 242 242 242 242 241 239 239 239 234 231 231 233 234 237 238 238 240 242 243 243 244 246 248 249 248 248 249 250 251 252 253 253 254 255 257 259 259 259 260 262 264 265 264 264 263 264 265 265 264 263 261 260 260 261 261 261 261 261 262
252 251 250 249 248 248 248 247 247 246 245 245 244 243 242 242 243 244 244 244 244 244 244 243 243 242 242 243 243 243 243 241 241 242 241 239 236 234 233 232 233 233 236 239 242 243 244 244 246 247 247 247 248 250 251 252 252 253 254 255 256 259 260 261 261 262 263 263 263 263 262 262 262 263 264 264 263 261 260 260 260 261 261 260 261
255 253 252 251 251 250 249 248 248 247 246 246 246 246 245 243 243 243 244 245 245 245 245 245 245 245 244 243 243 244 244 243 242 242 243 244 243 242 238 235 232 231 232 235 239 242 243 244 244 245 247 248 248 248 250 251 252 253 253 254 255 257 259 260 261 261 262 262 262 262 261 261 261 261 262 263 264 264 263 263 262 262 262 262 261
257 256 255 253 252 252 251 250 249 248 247 247 247 247 247 246 245 244 244 245 246 246 246 246 246 246 245 245 245 245 244 244 243 243 243 244 245 245 244 242 239 236 235 236 237 239 241 243 244 245 246 247 248 248 248 249 250 252 252 253 254 255 257 259 260 260 261 262 262 261 260 260 260 261 261 263 264 265 265 265 265 264 264 263 262
257 257 257 255 254 254 253 252 251 250 249 248 248 247 248 248 248 247 246 246 246 247 247 246 246 246 246 246 246 246 246 246 245 244 244 245 245 246 246 246 245 243 241 240 239 239 240 240 242 243 244 246 247 248 248 248 249 250 252 253 254 255 256 257 259 259 260 260 260 260 259 260 260 260 261 261 262 263 264 264 264 264 264 263 262
255 255 256 256 255 254 254 254 253 252 251 250 249 248 248 248 248 248 248 247 247 247 247 248 247 247 246 246 246 246 246 247 247 246 246 246 246 246 246 246 247 247 246 245 243 243 243 242 242 241 242 244 246 247 248 249 249 249 250 252 253 254 255 257 257 258 258 258 259 259 259 259 260 260 260 260 261 261 262 263 263 263 263 263 262
253 253 254 254 254 254 254 254 254 253 253 252 251 250 249 248 248 248 248 248 248 248 248 248 248 248 247 247 247 246 246 246 247 247 247 247 247 247 246 246 246 247 248 249 249 247 246 246 246 245 244 244 245 246 248 249 249 250 250 251 252 253 254 255 256 256 257 257 257 258 259 259 259 259 260 261 261 261 261 261 261 262 261 261 261
252 253 253 254 253 253 253 253 254 254 254 253 253 252 251 250 249 249 248 248 248 248 248 248 248 248 248 247 247 247 246 246 246 246 247 247 247 248 247 246 246 246 247 249 251 252 250 248 248 249 248 248 248 247 247 248 249 251 251 251 252 253 253 253 254 254 255 256 257 258 258 259 259 260 261 261 262 261 261 260 260 260 261 260 260
254 252 252 254 253 253 252 253 253 253 253 254 253 253 253 252 251 250 249 249 249 249 249 249 248 248 248 248 247 247 247 247 247 247 247 246 247 247 248 247 247 247 247 247 248 251 252 252 251 250 250 250 251 251 250 249 248 249 250 252 252 253 254 254 254 255 255 256 257 258 258 258 259 260 260 261 261 260 260 260 260 260 260 260 260
256 254 253 255 255 254 253 254 254 254 254 254 254 254 253 253 252 251 250 250 249 249 250 249 249 249 249 249 249 248 248 248 248 248 248 248 247 247 247 247 247 247 248 248 248 249 250 252 252 252 251 251 251 251 251 251 250 249 248 249 251 252 253 254 255 256 256 257 258 258 259 259 259 259 259 260 260 260 260 260 260 260 260 260 261
256 256 255 256 257 256 256 257 256 256 256 255 255 255 255 254 253 252 251 251 250 250 250 250 250 250 250 249 249 249 249 249 249 249 249 250 250 249 249 248 247 247 248 248 248 249 249 250 252 252 252 252 251 251 250 250 250 250 250 249 248 249 250 251 252 253 254 255 255 256 257 258 258 258 258 259 259 260 261 261 261 261 260 261 261
256 257 258 259 259 259 260 259 258 257 256 255 255 256 256 255 254 253 251 251 251 250 250 250 250 250 250 250 250 250 250 249 249 249 250 250 250 250 250 250 249 249 248 248 248 248 249 250 250 251 251 251 251 250 250 249 248 249 250 250 249 248 248 248 248 249 249 250 251 252 253 253 254 255 256 257 257 257 258 259 259 260 260 260 260
258 258 259 261 260 260 260 260 258 256 255 255 256 257 256 255 253 253 252 251 250 251 251 251 251 250 250 250 251 251 251 250 250 250 250 250 250 250 250 250 250 250 249 249 248 248 248 249 249 250 251 251 251 251 250 249 248 248 249 249 250 250 249 248 248 248 249 249 250 250 251 251 252 253 254 254 254 255 255 256 256 257 258 258 259
257 258 259 260 261 260 259 259 258 256 255 255 257 258 258 255 253 252 251 251 250 251 251 251 252 252 251 251 251 251 251 251 251 251 251 251 251 251 251 251 251 251 251 250 250 250 249 249 250 250 250 251 251 251 251 251 250 249 249 249 250 251 251 250 250 250 249 250 250 251 252 252 252 254 254 254 254 254 254 254 255 255 257 258 259
255 256 257 258 258 259 258 256 256 256 256 256 256 257 258 258 256 254 252 251 251 251 252 252 252 253 252 252 251 251 251 251 251 251 251 251 251 252 252 252 251 252 252 252 251 251 251 251 251 251 251 252 252 252 252 252 251 251 250 250 249 250 251 252 252 252 251 251 251 251 252 252 252 253 255 256 256 256 255 255 255 255 257 258 260
256 256 255 255 254 254 253 252 253 256 258 257 257 257 258 260 260 259 256 254 253 252 252 252 252 252 253 253 253 253 252 251 251 251 251 252 252 252 253 253 253 253 253 253 253 253 252 252 252 252 252 253 253 253 253 253 253 252 252 252 251 250 251 251 252 253 253 252 252 252 252 253 253 253 254 255 256 257 257 257 257 257 258 259 260
258 258 257 256 254 252 251 250 252 254 257 258 258 258 258 260 262 263 262 260 257 256 254 253 253 253 253 253 253 254 254 253 253 252 252 252 252 252 253 253 254 254 254 254 254 254 254 253 253 254 254 254 254 255 254 254 253 253 253 253 253 252 252 252 252 252 253 253 252 252 253 253 253 253 253 254 255 255 256 257 257 258 259 260 260
260 259 259 257 256 254 252 251 251 252 253 255 257 258 259 260 260 262 264 264 262 260 257 256 256 255 255 255 254 254 254 254 254 254 253 253 253 253 253 253 254 254 254 254 254 254 254 254 254 254 255 254 255 255 255 255 254 254 254 254 254 254 254 254 253 253 254 254 253 253 253 254 254 254 253 254 254 254 255 255 256 257 258 259 260
261 261 260 259 258 257 255 253 252 252 252 253 255 258 260 260 259 259 261 262 263 263 261 260 260 259 258 257 256 255 254 254 254 255 255 255 254 254 253 253 253 254 254 254 254 254 254 254 254 255 255 255 255 255 255 255 255 255 254 254 254 254 254 254 254 254 255 256 255 254 254 254 255 255 254 254 254 254 254 255 255 255 256 257 258
262 262 261 261 260 259 258 256 254 253 253 253 255 256 258 258 259 259 259 260 262 263 263 262 262 262 261 260 258 257 256 255 255 255 255 255 255 255 254 254 254 254 254 255 255 255 255 255 255 255 255 256 256 256 256 256 256 255 255 255 255 255 254 254 254 255 255 256 256 256 255 256 256 256 256 256 256 256 255 256 256 256 256 256 257
263 262 262 261 261 261 261 260 259 257 256 255 255 255 256 257 258 259 259 260 261 261 262 262 263 263 262 262 261 260 259 258 257 256 256 256 256 256 256 255 255 255 255 255 255 255 256 256 256 255 255 256 256 256 257 257 257 257 256 255 255 255 255 255 255 255 255 256 256 256 255 255 256 257 257 258 258 257 257 257 257 257 257 257 257
262 262 262 262 262 262 262 262 261 261 259 258 257 257 257 258 258 258 259 259 259 260 261 261 262 262 262 262 262 262 261 260 259 258 258 257 257 256 256 256 256 256 256 256 256 256 256 257 257 257 257 257 256 256 257 257 257 258 258 258 257 256 256 256 256 256 256 256 257 257 256 255 256 256 257 258 258 258 258 258 258 258 257 257 258
262 262 262 261 261 261 262 262 262 261 260 259 259 259 259 259 259 259 258 258 258 258 259 260 261 261 262 262 262 262 262 262 261 260 259 259 258 258 257 257 257 257 257 257 257 257 257 257 257 257 257 258 258 258 258 258 258 258 258 258 258 258 258 257 257 257 257 257 258 258 257 256 256 257 257 257 258 258 258 259 259 259 258 258 258
262 261 261 261 261 261 261 261 260 260 260 260 260 260 260 260 260 260 259 259 258 258 258 259 259 260 260 261 261 262 262 262 262 261 261 260 260 259 259 258 258 258 258 258 258 258 258 258 258 257 257 258 258 258 259 259 259 259 259 258 258 258 259 259 258 258 258 259 259 259 259 258 258 257 257 258 258 259 259 259 260 260 260 259 259
Height
10710 10709 10708 10710 10710 10709 10709 10710 10710 10708 10707 10708 10709 10710 10711 10709 10707 10707 10707 10706 10706 10706 10706 10706 10707 10708 10709 10710 10711 10713 10714 10716 10719 10720 10720 10723 10726 10727 10730 10733 10735 10736 10738 10740 10741 10742 10744 10745 10747 10748 10749 10750 10751 10753 10754 10756 10757 10759 10760 10762 10762 10762 10763 10765 10766 10767 10768 10769 10769 10770 10771 10771 10772 10773 10774 10775 10775 10775 10776 10776 10776 10776 10777 10777 10777
10703 10703 10704 10706 10705 10705 10706 10706 10706 10704 10704 10705 10706 10706 10706 10703 10702 10702 10703 10702 10702 10702 10701 10702 10702 10703 10704 10705 10706 10708 10710 10712 10714 10717 10717 10719 10722 10724 10727 10729 10732 10733 10735 10737 10738 10739 10741 10742 10743 10744 10745 10747 10748 10749 10751 10752 10754 10756 10757 10759 10760 10760 10760 10762 10763 10764 10765 10766 10767 10768 10768 10769 10769 10770 10771 10772 10773 10773 10773 10773 10773 10774 10774 10774 10774
10697 10697 10699 10701 10701 10701 10701 10701 10701 10700 10700 10700 10700 10701 10700 10697 10696 10697 10699 10699 10699 10698 10697 10698 10698 10699 10701 10701 10702 10704 10705 10707 10710 10712 10713 10715 10718 10720 10722 10725 10728 10730 10732 10734 10736 10737 10739 10740 10740 10741 10742 10743 10744 10746 10747 10749 10751 10753 10754 10755 10756 10757 10758 10759 10760 10760 10761 10763 10764 10765 10766 10766 10767 10768 10769 10769 10770 10771 10771 10771 10771 10771 10771 10771 10772
10693 10691 10692 10694 10695 10695 10696 10696 10696 10696 10696 10695 10694 10695 10694 10693 10692 10692 10694 10696 10696 10695 10694 10693 10694 10695 10697 10698 10698 10700 10701 10703 10706 10708 10709 10711 10714 10716 10718 10721 10724 10726 10729 10731 10733 10734 10736 10737 10738 10738 10738 10739 10740 10741 10743 10745 10747 10749 10750 10751 10752 10753 10754 10755 10757 10758 10758 10759 10760 10761 10762 10763 10764 10765 10766 10767 10767 10768 10768 10769 10769 10769 10769 10769 10769
10687 10686 10685 10686 10687 10687 10689 10691 10692 10692 10691 10691 10689 10688 10688 10688 10688 10687 10689 10692 10692 10692 10691 10690 10690 10691 10693 10694 10695 10696 10698 10700 10702 10704 10706 10708 10710 10712 10714 10716 10719 10722 10725 10728 10729 10730 10732 10733 10734 10735 10735 10735 10736 10737 10739 10741 10743 10745 10746 10747 10748 10749 10750 10751 10753 10754 10755 10756 10757 10758 10759 10760 10761 10762 10763 10764 10765 10765 10766 10766 10766 10766 10766 10766 10766
10682 10682 10680 10678 10679 10680 10682 10686 10689 10689 10689 10687 10683 10680 10681 10683 10684 10684 10686 10688 10688 10688 10688 10687 10686 10687 10689 10691 10692 10693 10695 10697 10699 10701 10702 10704 10707 10709 10711 10713 10716 10719 10721 10724 10725 10727 10729 10729 10730 10731 10731 10731 10732 10734 10735 10737 10738 10740 10742 10743 10744 10745 10746 10747 10749 10750 10752 10753 10754 10755 10756 10757 10758 10759 10760 10761 10762 10763 10763 10763 10763 10764 10764 10764 10764
10676 10681 10680 10676 10674 10675 10679 10683 10685 10684 10683 10679 10674 10672 10675 10678 10681 10682 10683 10684 10685 10684 10684 10684 10684 10684 10686 10688 10689 10690 10692 10694 10696 10697 10699 10701 10703 10706 10708 10710 10712 10715 10718 10720 10722 10724 10725 10726 10726 10727 10727 10727 10728 10730 10732 10733 10734 10736 10738 10739 10740 10741 10743 10743 10745 10746 10747 10749 10750 10751 10753 10754 10755 10756 10757 10758 10759 10760 10760 10761 10761 10761 10761 10761 10761
10670 10676 10676 10672 10670 10671 10677 10684 10683 10676 10670 10666 10665 10667 10671 10674 10676 10678 10680 10681 10681 10681 10681 10681 10681 10682 10683 10685 10686 10687 10688 10690 10692 10693 10695 10697 10700 10703 10705 10708 10709 10712 10714 10716 10719 10720 10721 10722 10722 10723 10723 10724 10725 10726 10728 10729 10731 10732 10734 10735 10737 10738 10739 10740 10741 10742 10743 10745 10746 10748 10749 10751 10752 10753 10754 10755 10756 10757 10758 10758 10758 10758 10759 10759 10759
10660 10664 10664 10664 10664 10668 10675 10680 10675 10664 10658 10656 10659 10662 10666 10669 10670 10673 10676 10677 10678 10679 10679 10678 10678 10678 10679 10681 10681 10683 10684 10686 10688 10689 10691 10693 10696 10698 10701 10704 10706 10708 10710 10713 10715 10716 10717 10718 10719 10719 10719 10720 10721 10723 10724 10726 10727 10729 10730 10732 10733 10734 10735 10736 10737 10739 10740 10741 10742 10744 10745 10747 10748 10750 10751 10752 10753 10754 10755 10755 10756 10756 10756 10756 10756
10650 10652 10655 10656 10659 10665 10669 10668 10661 10654 10652 10653 10655 10657 10660 10664 10665 10669 10671 10673 10674 10675 10674 10673 10674 10674 10675 10677 10678 10679 10681 10682 10684 10686 10688 10689 10691 10694 10697 10700 10702 10704 10707 10709 10711 10713 10714 10715 10715 10715 10715 10716 10718 10719 10720 10722 10724 10725 10727 10728 10729 10730 10732 10733 10734 10735 10736 10738 10739 10740 10742 10743 10744 10746 10747 10748 10749 10750 10751 10752 10753 10753 10754 10754 10754
10641 10642 10646 10648 10652 10658 10660 10655 10649 10646 10647 10649 10652 10652 10655 10658 10662 10665 10667 10669 10670 10670 10670 10670 10669 10670 10672 10674 10675 10676 10677 10678 10680 10682 10684 10686 10688 10690 10692 10695 10697 10700 10703 10705 10708 10710 10711 10711 10711 10711 10712 10713 10714 10715 10717 10718 10720 10722 10723 10724 10725 10727 10728 10729 10730 10732 10733 10734 10735 10737 10738 10739 10740 10742 10743 10745 10746 10747 10748 10749 10749 10750 10751 10751 10751
10634 10635 10637 10640 10643 10648 10650 10646 10642 10641 10642 10644 10647 10649 10650 10654 10658 10661 10663 10665 10666 10666 10667 10666 10665 10666 10669 10669 10670 10672 10673 10675 10677 10678 10680 10682 10684 10687 10688 10691 10693 10695 10697 10700 10704 10706 10707 10707 10708 10708 10709 10710 10711 10712 10714 10715 10717 10719 10720 10721 10722 10723 10724 10725 10727 10728 10729 10730 10732 10733 10734 10735 10736 10738 10739 10741 10742 10743 10745 10745 10746 10747 10748 10749 10749
10628 10629 10630 10633 10635 10639 10641 10640 10636 10635 10637 10640 10643 10644 10647 10650 10654 10658 10660 10662 10663 10663 10663 10662 10662 10664 10666 10666 10666 10668 10671 10672 10674 10675 10677 10678 10681 10683 10685 10688 10690 10691 10693 10695 10698 10701 10703 10704 10705 10706 10706 10707 10707 10708 10710 10711 10713 10715 10716 10717 10718 10719 10720 10721 10723 10724 10725 10726 10727 10729 10730 10731 10732 10734 10735 10737 10738 10740 10741 10742 10743 10744 10745 10746 10747
10622 10623 10625 10626 10629 10632 10633 10633 10631 10631 10633 10636 10638 10640 10643 10647 10651 10654 10656 10657 10658 10659 10659 10660 10661 10662 10663 10664 10664 10666 10668 10670 10671 10672 10674 10675 10677 10680 10682 10684 10686 10688 10689 10690 10693 10695 10698 10700 10701 10702 10702 10704 10704 10705 10706 10707 10708 10710 10712 10713 10714 10715 10716 10718 10719 10720 10721 10722 10723 10725 10726 10727 10728 10730 10731 10733 10734 10736 10737 10738 10739 10741 10742 10743 10743
10617 10618 10620 10621 10623 10626 10627 10627 10626 10627 10629 10632 10634 10636 10639 10643 10648 10650 10651 10652 10653 10654 10655 10658 10659 10660 10661 10662 10663 10664 10666 10668 10669 10669 10670 10671 10674 10676 10678 10680 10682 10684 10685 10686 10688 10690 10693 10695 10697 10699 10700 10701 10702 10702 10703 10703 10704 10706 10707 10708 10710 10711 10713 10714 10716 10717 10718 10719 10720 10721 10722 10723 10724 10726 10727 10729 10730 10731 10733 10734 10736 10737 10738 10739 10740
10612 10614 10615 10616 10618 10620 10622 10622 10622 10622 10625 10628 10630 10633 10636 10639 10643 10645 10645 10646 10647 10648 10651 10654 10656 10657 10658 10660 10661 10662 10663 10664 10666 10666 10667 10668 10670 10672 10675 10677 10679 10681 10683 10683 10685 10686 10688 10690 10693 10695 10697 10699 10700 10700 10701 10701 10702 10703 10704 10705 10706 10707 10708 10710 10711 10713 10714 10716 10717 10718 10719 10720 10721 10722 10723 10725 10726 10727 10729 10730 10732 10733 10734 10735 10736
10608 10609 10611 10612 10614 10615 10617 10617 10618 10618 10621 10624 10626 10629 10632 10634 10637 10639 10640 10641 10642 10644 10647 10650 10651 10652 10654 10656 10657 10658 10659 10660 10661 10662 10663 10665 10667 10669 10671 10674 10676 10678 10679 10680 10682 10684 10685 10688 10689 10691 10693 10695 10695 10696 10697 10698 10699 10700 10701 10702 10704 10705 10705 10706 10707 10708 10710 10712 10713 10714 10715 10716 10717 10718 10720 10721 10722 10723 10725 10726 10727 10728 10729 10730 10731
10604 10606 10607 10608 10609 10611 10612 10613 10614 10615 10617 10620 10622 10624 10627 10629 10632 10634 10636 10637 10639 10641 10644 10646 10646 10647 10648 10650 10651 10653 10654 10655 10656 10657 10658 10661 10663 10665 10668 10670 10672 10674 10675 10675 10678 10680 10682 10684 10686 10687 10688 10688 10688 10691 10692 10694 10695 10696 10697 10699 10700 10702 10702 10703 10704 10705 10706 10708 10710 10711 10712 10713 10714 10715 10716 10717 10718 10719 10720 10721 10722 10723 10725 10726 10727
10601 10602 10604 10605 10606 10607 10609 10610 10611 10612 10614 10616 10618 10620 10622 10624 10627 10630 10632 10633 10635 10636 10639 10641 10641 10641 10643 10645 10646 10648 10649 10650 10652 10653 10655 10657 10659 10662 10664 10665 10667 10669 10670 10671 10673 10675 10677 10680 10682 10683 10683 10682 10684 10687 10688 10690 10692 10692 10693 10695 10697 10698 10699 10699 10700 10701 10702 10704 10705 10707 10708 10709 10710 10712 10713 10714 10714 10715 10715 10716 10718 10719 10720 10722 10723
10599 10600 10601 10602 10603 10605 10606 10607 10608 10609 10611 10612 10614 10616 10617 10620 10623 10625 10627 10629 10631 10632 10634 10635 10636 10637 10638 10640 10642 10643 10644 10646 10647 10649 10651 10653 10655 10658 10659 10661 10662 10664 10666 10667 10669 10671 10673 10675 10677 10677 10678 10679 10681 10684 10685 10687 10687 10687 10689 10692 10694 10694 10695 10696 10696 10697 10698 10700 10701 10702 10704 10705 10707 10708 10709 10709 10710 10710 10711 10712 10714 10715 10716 10717 10718
10596 10597 10599 10600 10601 10602 10603 10604 10605 10607 10608 10609 10611 10612 10614 10616 10618 10620 10622 10624 10627 10628 10630 10631 10633 10633 10634 10637 10638 10639 10640 10642 10643 10645 10647 10649 10651 10653 10654 10656 10658 10659 10661 10663 10665 10666 10669 10670 10671 10672 10673 10675 10677 10679 10682 10683 10683 10683 10686 10689 10690 10691 10691 10692 10693 10694 10695 10696 10697 10698 10699 10701 10702 10704 10705 10705 10706 10706 10708 10709 10710 10711 10712 10713 10714
10594 10595 10596 10597 10598 10599 10600 10601 10602 10604 10605 10606 10608 10609 10610 10612 10613 10616 10618 10619 10622 10624 10626 10628 10629 10630 10632 10635 10636 10636 10637 10638 10639 10640 10642 10645 10646 10647 10649 10651 10654 10655 10657 10659 10661 10662 10664 10665 10666 10667 10669 10671 10673 10674 10677 10679 10679 10679 10682 10684 10685 10685 10686 10687 10688 10690 10691 10692 10693 10695 10696 10697 10698 10699 10701 10702 10702 10703 10704 10705 10705 10706 10707 10708 10709
10590 10591 10592 10594 10595 10596 10597 10598 10599 10600 10602 10603 10604 10605 10606 10608 10609 10611 10613 10615 10617 10619 10620 10623 10625 10626 10629 10632 10633 10633 10634 10635 10636 10637 10639 10641 10642 10643 10645 10647 10649 10651 10653 10654 10656 10658 10660 10661 10662 10663 10665 10666 10669 10671 10673 10675 10675 10674 10677 10679 10679 10679 10681 10682 10683 10685 10687 10688 10689 10691 10692 10693 10694 10695 10697 10698 10698 10699 10699 10700 10701 10702 10702 10703 10703
10586 10587 10588 10589 10590 10592 10593 10594 10595 10596 10598 10599 10600 10601 10603 10604 10605 10607 10609 10611 10612 10614 10615 10617 10619 10621 10624 10627 10629 10630 10631 10632 10633 10634 10636 10637 10638 10640 10641 10643 10646 10647 10649 10650 10652 10653 10655 10657 10657 10659 10660 10662 10665 10667 10670 10671 10670 10669 10671 10674 10674 10675 10677 10678 10678 10680 10682 10684 10685 10687 10688 10689 10690 10692 10693 10694 10694 10695 10695 10696 10697 10697 10698 10698 10699
10583 10583 10583 10584 10585 10587 10588 10589 10591 10592 10594 10595 10596 10598 10599 10600 10601 10602 10604 10606 10608 10610 10611 10612 10614 10616 10619 10621 10623 10625 10626 10628 10629 10630 10632 10633 10635 10636 10637 10639 10642 10643 10645 10646 10647 10649 10651 10652 10653 10654 10655 10657 10661 10664 10666 10666 10664 10664 10666 10669 10671 10671 10672 10674 10675 10676 10677 10679 10681 10682 10684 10685 10686 10687 10688 10689 10690 10691 10691 10692 10693 10693 10694 10694 10695
10579 10579 10579 10580 10581 10582 10583 10584 10586 10587 10589 10590 10592 10593 10594 10596 10597 10598 10600 10601 10603 10605 10606 10608 10608 10610 10612 10615 10616 10619 10621 10622 10624 10626 10627 10629 10631 10632 10633 10635 10637 10639 10641 10642 10643 10645 10646 10647 10647 10649 10651 10654 10656 10658 10659 10659 10659 10660 10662 10664 10666 10668 10669 10670 10671 10672 10673 10675 10676 10678 10679 10680 10681 10682 10683 10684 10685 10686 10687 10688 10688 10689 10690 10690 10691
10574 10574 10575 10575 10576 10577 10578 10579 10580 10582 10584 10585 10587 10588 10590 10591 10592 10594 10595 10596 10598 10599 10600 10602 10603 10604 10606 10608 10610 10612 10614 10616 10618 10620 10622 10624 10626 10627 10629 10630 10631 10633 10635 10637 10639 10641 10642 10641 10642 10645 10647 10649 10650 10650 10652 10655 10656 10657 10657 10658 10659 10662 10665 10666 10667 10668 10669 10670 10671 10673 10674 10675 10675 10676 10678 10679 10680 10681 10682 10683 10684 10685 10685 10686 10686
10569 10569 10570 10570 10571 10572 10573 10574 10575 10577 10578 10580 10581 10583 10584 10586 10587 10589 10590 10591 10593 10594 10595 10596 10598 10599 10600 10602 10603 10605 10607 10609 10611 10613 10616 10618 10620 10622 10624 10625 10627 10628 10629 10631 10633 10636 10637 10636 10638 10640 10641 10643 10644 10644 10647 10651 10651 10651 10652 10653 10654 10656 10659 10661 10662 10663 10664 10665 10666 10667 10668 10669 10670 10671 10672 10674 10675 10676 10677 10678 10679 10680 10681 10681 10682
10563 10563 10564 10565 10566 10567 10568 10569 10570 10572 10573 10575 10576 10577 10579 10580 10582 10583 10585 10586 10587 10588 10590 10591 10592 10593 10594 10596 10597 10598 10600 10602 10604 10606 10608 10611 10613 10616 10618 10620 10622 10623 10624 10625 10627 10630 10631 10631 10634 10635 10635 10637 10638 10639 10643 10645 10644 10645 10648 10648 10649 10650 10652 10653 10655 10656 10658 10659 10660 10661 10662 10663 10664 10665 10666 10668 10669 10670 10671 10672 10673 10674 10675 10676 10677
10556 10557 10558 10559 10560 10561 10562 10563 10565 10566 10568 10569 10571 10572 10573 10575 10576 10578 10579 10581 10582 10583 10584 10585 10587 10588 10589 10590 10591 10592 10594 10596 10597 10599 10601 10603 10605 10608 10611 10613 10616 10617 10619 10620 10621 10623 10624 10626 10628 10630 10630 10631 10632 10634 10637 10638 10637 10639 10642 10643 10643 10645 10645 10646 10648 10650 10651 10653 10654 10655 10655 10657 10658 10660 10661 10662 10663 10664 10665 10665 10666 10667 10669 10670 10671
10549 10550 10551 10552 10553 10554 10556 10557 10559 10560 10562 10563 10565 10567 10568 10569 10571 10572 10574 10575 10576 10577 10578 10580 10581 10582 10583 10584 10585 10587 10588 10589 10591 10592 10594 10596 10597 10600 10602 10605 10607 10610 10612 10614 10615 10616 10617 10619 10621 10623 10624 10625 10626 10628 10630 10631 10631 10632 10634 10636 10637 10638 10638 10639 10641 10643 10644 10646 10647 10647 10648 10650 10652 10653 10655 10656 10657 10658 10658 10659 10660 10661 10662 10663 10664
10542 10543 10544 10545 10546 10547 10549 10551 10553 10554 10556 10557 10559 10560 10562 10564 10565 10566 10568 10569 10570 10571 10572 10573 10575 10576 10577 10579 10580 10581 10582 10583 10585 10586 10588 10589 10591 10593 10594 10596 10599 10601 10603 10605 10607 10609 10611 10612 10614 10616 10617 10618 10619 10620 10622 10624 10625 10625 10627 10629 10630 10631 10631 10632 10634 10635 10637 10638 10639 10640 10641 10643 10645 10646 10648 10649 10650 10650 10651 10652 10653 10654 10655 10656 10658
10533 10535 10536 10537 10539 10540 10541 10543 10546 10548 10550 10551 10553 10554 10555 10557 10558 10560 10561 10563 10564 10565 10566 10567 10569 10570 10572 10573 10574 10575 10576 10577 10579 10580 10582 10583 10584 10586 10588 10589 10591 10593 10595 10597 10599 10601 10603 10605 10607 10608 10610 10611 10611 10613 10614 10616 10617 10618 10620 10622 10623 10624 10624 10625 10626 10627 10629 10630 10631 10632 10633 10635 10637 10639 10640 10641 10642 10643 10644 10645 10646 10647 10647 10649 10650
10525 10527 10528 10530 10531 10533 10534 10536 10539 10541 10543 10545 10546 10548 10549 10550 10551 10552 10554 10556 10557 10559 10560 10561 10563 10564 10565 10567 10568 10568 10570 10571 10572 10574 10575 10576 10578 10579 10581 10583 10584 10585 10587 10588 10591 10593 10596 10597 10599 10601 10603 10604 10604 10605 10607 10608 10609 10611 10612 10614 10615 10616 10617 10617 10618 10619 10620 10622 10623 10625 10626 10628 10629 10631 10632 10633 10634 10636 10637 10638 10638 10639 10640 10641 10642
10517 10518 10520 10522 10524 10526 10527 10529 10532 10534 10535 10537 10539 10541 10542 10543 10545 10546 10547 10548 10550 10551 10553 10554 10555 10556 10557 10559 10560 10561 10562 10563 10564 10566 10568 10569 10571 10572 10574 10576 10577 10578 10580 10581 10582 10584 10587 10589 10591 10593 10594 10596 10597 10598 10599 10600 10601 10603 10604 10605 10607 10608 10609 10610 10610 10611 10612 10613 10615 10617 10618 10620 10622 10623 10624 10625 10626 10627 10628 10629 10630 10631 10632 10633 10634
10509 10510 10512 10513 10516 10518 10520 10523 10525 10527 10528 10529 10531 10533 10534 10536 10537 10538 10539 10541 10542 10543 10545 10546 10547 10548 10550 10551 10552 10553 10554 10555 10557 10558 10560 10561 10563 10565 10566 10568 10570 10571 10572 10574 10575 10576 10577 10579 10582 10585 10586 10587 10588 10590 10591 10592 10594 10595 10596 10597 10599 10600 10601 10601 10602 10603 10604 10605 10607 10608 10610 10612 10614 10616 10617 10617 10618 10619 10620 10621 10622 10623 10624 10624 10625
10501 10502 10503 10504 10508 10511 10513 10516 10519 10520 10521 10522 10523 10524 10525 10527 10528 10530 10531 10532 10534 10536 10536 10538 10539 10541 10542 10543 10544 10545 10547 10548 10549 10551 10552 10553 10555 10556 10558 10559 10561 10563 10564 10566 10568 10569 10570 10570 10572 10575 10577 10578 10579 10580 10582 10584 10586 10587 10588 10590 10591 10592 10592 10593 10594 10595 10595 10596 10598 10600 10601 10603 10605 10607 10609 10610 10610 10611 10612 10613 10615 10615 10616 10616 10617
10495 10494 10493 10496 10500 10503 10506 10509 10511 10513 10515 10515 10515 10515 10516 10517 10518 10520 10521 10523 10526 10527 10527 10529 10531 10532 10534 10535 10536 10538 10539 10540 10542 10543 10544 10545 10547 10548 10550 10551 10553 10555 10556 10558 10559 10561 10562 10562 10563 10564 10566 10568 10570 10570 10572 10575 10577 10578 10580 10582 10583 10584 10584 10585 10585 10586 10587 10588 10589 10591 10593 10594 10596 10598 10599 10601 10603 10603 10604 10605 10607 10607 10608 10609 10610
10488 10486 10486 10490 10493 10495 10498 10500 10503 10506 10507 10506 10506 10506 10506 10507 10507 10508 10511 10514 10516 10517 10518 10520 10522 10523 10525 10527 10528 10529 10530 10532 10533 10535 10536 10537 10538 10540 10541 10543 10544 10546 10547 10549 10551 10552 10553 10554 10554 10555 10557 10559 10560 10561 10563 10566 10569 10569 10571 10573 10574 10575 10576 10576 10577 10578 10579 10580 10581 10583 10585 10586 10587 10588 10590 10592 10594 10595 10596 10598 10598 10599 10600 10601 10602
10480 10480 10481 10483 10485 10488 10489 10490 10491 10493 10495 10496 10497 10496 10494 10494 10496 10497 10501 10505 10507 10508 10509 10511 10513 10514 10516 10518 10519 10520 10521 10523 10525 10526 10527 10528 10529 10530 10532 10534 10535 10537 10538 10539 10541 10543 10544 10545 10545 10546 10548 10549 10550 10551 10553 10557 10560 10560 10561 10564 10564 10564 10566 10567 10568 10568 10570 10571 10573 10574 10576 10578 10579 10579 10580 10582 10584 10586 10588 10589 10590 10590 10591 10592 10594
10473 10473 10475 10476 10478 10480 10481 10479 10478 10480 10483 10486 10487 10486 10481 10480 10483 10486 10491 10495 10497 10498 10499 10501 10503 10505 10506 10508 10509 10510 10511 10514 10515 10517 10518 10519 10521 10521 10523 10524 10526 10527 10528 10530 10531 10533 10535 10536 10536 10537 10538 10539 10540 10542 10544 10547 10549 10550 10551 10554 10555 10554 10555 10557 10558 10558 10560 10562 10564 10565 10567 10568 10570 10570 10571 10572 10574 10576 10579 10580 10581 10581 10582 10583 10585
10466 10467 10468 10470 10472 10473 10473 10471 10468 10470 10474 10477 10478 10476 10471 10469 10471 10476 10481 10486 10488 10490 10491 10492 10494 10494 10495 10497 10498 10499 10501 10503 10505 10506 10508 10510 10511 10512 10513 10515 10517 10518 10519 10520 10521 10523 10525 10526 10527 10527 10529 10529 10529 10532 10535 10536 10538 10540 10541 10543 10545 10545 10545 10548 10548 10547 10549 10552 10555 10557 10557 10558 10560 10561 10561 10562 10563 10565 10568 10570 10570 10570 10572 10573 10576
10458 10460 10461 10463 10465 10466 10466 10464 10461 10462 10466 10468 10468 10467 10464 10461 10461 10465 10471 10476 10478 10481 10483 10483 10484 10484 10485 10486 10488 10490 10491 10492 10494 10496 10498 10500 10501 10502 10504 10505 10507 10508 10509 10510 10511 10513 10515 10516 10517 10518 10519 10520 10519 10521 10524 10525 10527 10530 10531 10532 10534 10535 10536 10539 10539 10537 10537 10541 10546 10548 10548 10546 10549 10552 10552 10553 10554 10554 10555 10557 10558 10560 10561 10563 10566
10449 10451 10452 10454 10456 10458 10459 10458 10457 10456 10459 10460 10460 10459 10457 10455 10454 10456 10461 10466 10468 10472 10474 10474 10474 10474 10475 10476 10479 10480 10480 10481 10484 10486 10489 10490 10491 10492 10494 10495 10496 10497 10498 10500 10501 10502 10503 10506 10507 10508 10509 10510 10510 10510 10512 10514 10517 10519 10520 10520 10522 10525 10527 10528 10529 10528 10526 10528 10535 10539 10539 10536 10537 10541 10543 10543 10543 10544 10545 10546 10548 10550 10551 10552 10554
10439 10441 10442 10444 10447 10448 10450 10451 10451 10451 10453 10453 10452 10451 10449 10447 10447 10448 10451 10455 10459 10462 10463 10463 10463 10464 10465 10467 10468 10469 10470 10471 10473 10476 10478 10479 10480 10482 10483 10484 10485 10486 10487 10488 10489 10490 10492 10494 10497 10498 10497 10499 10500 10499 10499 10501 10505 10507 10508 10509 10511 10514 10516 10517 10518 10518 10515 10516 10522 10528 10531 10527 10524 10529 10533 10532 10531 10533 10535 10537 10538 10540 10542 10541 10542
10429 10430 10431 10433 10436 10437 10439 10441 10443 10445 10448 10446 10443 10443 10439 10437 10439 10441 10443 10447 10451 10451 10451 10451 10451 10453 10455 10456 10457 10458 10459 10461 10462 10464 10466 10467 10468 10469 10471 10473 10473 10474 10475 10476 10477 10478 10480 10482 10485 10486 10485 10485 10488 10488 10486 10488 10491 10494 10496 10498 10500 10502 10505 10506 10507 10507 10506 10505 10508 10515 10521 10517 10512 10516 10522 10520 10518 10522 10525 10526 10527 10530 10532 10533 10532
10417 10420 10421 10422 10424 10426 10428 10430 10433 10438 10441 10437 10434 10433 10430 10428 10430 10433 10436 10439 10442 10441 10439 10440 10441 10441 10442 10444 10445 10446 10448 10451 10453 10454 10455 10455 10456 10457 10459 10461 10462 10463 10464 10464 10465 10466 10468 10470 10473 10474 10473 10473 10474 10475 10474 10474 10477 10480 10482 10486 10488 10489 10492 10494 10495 10496 10496 10494 10494 10501 10509 10507 10501 10504 10508 10506 10506 10510 10513 10515 10516 10518 10521 10522 10522
10406 10408 10410 10412 10413 10415 10417 10419 10423 10429 10431 10427 10424 10422 10420 10420 10423 10425 10428 10430 10431 10430 10429 10429 10430 10430 10431 10432 10433 10435 10436 10439 10442 10443 10444 10443 10443 10444 10446 10449 10451 10452 10452 10452 10453 10455 10456 10458 10459 10461 10462 10462 10461 10462 10462 10462 10464 10465 10468 10472 10475 10475 10478 10481 10483 10484 10484 10483 10482 10486 10495 10496 10490 10491 10494 10493 10494 10498 10501 10502 10504 10506 10508 10511 10513
10396 10397 10398 10401 10403 10404 10406 10408 10413 10417 10416 10412 10411 10411 10412 10413 10414 10416 10418 10419 10419 10419 10419 10419 10419 10419 10419 10420 10421 10422 10424 10427 10430 10431 10431 10431 10431 10432 10434 10437 10439 10439 10439 10440 10442 10444 10445 10446 10447 10448 10449 10448 10448 10449 10450 10450 10451 10452 10454 10458 10460 10460 10465 10469 10471 10472 10471 10471 10470 10471 10479 10483 10480 10479 10482 10481 10481 10485 10487 10488 10490 10493 10495 10499 10502
10384 10385 10387 10389 10391 10394 10397 10398 10401 10402 10400 10398 10401 10402 10403 10404 10404 10404 10406 10406 10406 10407 10408 10409 10409 10408 10408 10409 10409 10411 10413 10415 10417 10417 10417 10417 10418 10419 10422 10425 10426 10427 10428 10429 10431 10432 10432 10433 10434 10435 10435 10435 10435 10436 10436 10437 10438 10438 10441 10444 10444 10445 10450 10454 10457 10459 10460 10459 10457 10456 10462 10468 10468 10467 10469 10469 10469 10472 10475 10475 10476 10478 10482 10487 10490
10372 10373 10375 10378 10380 10384 10386 10386 10386 10388 10387 10388 10390 10392 10393 10392 10391 10392 10393 10393 10394 10395 10396 10397 10397 10397 10396 10397 10398 10400 10401 10402 10403 10403 10403 10404 10405 10407 10409 10411 10413 10415 10416 10417 10418 10418 10418 10419 10419 10420 10421 10422 10422 10424 10423 10423 10423 10424 10426 10430 10430 10432 10436 10438 10441 10444 10447 10446 10442 10440 10446 10452 10453 10454 10455 10456 10458 10460 10461 10461 10462 10464 10469 10473 10476